TimeEDT,TemperatureF,Dew PointF,Humidity,Sea Level PressureIn,VisibilityMPH,Wind Direction,Wind SpeedMPH,Gust SpeedMPH,PrecipitationIn,Events,Conditions,WindDirDegrees,DateUTC
12:53 AM,60.1,37.9,44,29.99,10.0,South,8.1,-,N/A,,Partly Cloudy,190,2013-04-08 04:53:00
1:53 AM,61.0,39.0,44,29.99,10.0,SSW,8.1,-,N/A,,Overcast,200,2013-04-08 05:53:00
2:53 AM,54.0,39.9,59,30.01,10.0,North,5.8,-,N/A,,Clear,350,2013-04-08 06:53:00
3:53 AM,48.0,39.0,71,30.01,10.0,Calm,Calm,-,N/A,,Clear,0,2013-04-08 07:53:00
4:53 AM,44.1,37.9,79,30.01,10.0,Calm,Calm,-,N/A,,Clear,0,2013-04-08 08:53:00
5:53 AM,46.9,41.0,80,30.03,10.0,Calm,Calm,-,N/A,,Scattered Clouds,0,2013-04-08 09:53:00
6:53 AM,46.9,39.9,77,30.05,10.0,Calm,Calm,-,N/A,,Mostly Cloudy,0,2013-04-08 10:53:00
7:53 AM,48.0,42.1,80,30.07,10.0,Calm,Calm,-,N/A,,Scattered Clouds,0,2013-04-08 11:53:00
8:53 AM,57.9,42.1,56,30.06,10.0,Calm,Calm,-,N/A,,Clear,0,2013-04-08 12:53:00
9:53 AM,64.9,45.0,48,30.07,10.0,East,3.5,-,N/A,,Clear,90,2013-04-08 13:53:00
10:53 AM,69.1,46.0,44,30.06,10.0,Calm,Calm,-,N/A,,Clear,0,2013-04-08 14:53:00
11:53 AM,71.1,46.0,41,30.06,10.0,ESE,4.6,-,N/A,,Clear,110,2013-04-08 15:53:00
12:53 PM,75.0,46.0,36,30.03,10.0,SW,11.5,17.3,N/A,,Clear,230,2013-04-08 16:53:00
1:53 PM,75.9,43.0,31,30.01,10.0,Variable,5.8,-,N/A,,Partly Cloudy,0,2013-04-08 17:53:00
2:53 PM,77.0,44.1,31,29.98,10.0,SSE,9.2,16.1,N/A,,Scattered Clouds,150,2013-04-08 18:53:00
3:53 PM,79.0,42.1,27,29.96,10.0,Variable,5.8,16.1,N/A,,Scattered Clouds,0,2013-04-08 19:53:00
4:53 PM,78.1,39.9,25,29.95,10.0,SSW,13.8,17.3,N/A,,Partly Cloudy,200,2013-04-08 20:53:00
5:53 PM,75.0,39.9,28,29.95,10.0,SSW,9.2,-,N/A,,Partly Cloudy,200,2013-04-08 21:53:00
6:53 PM,73.0,44.1,35,29.95,10.0,SSE,9.2,-,N/A,,Scattered Clouds,150,2013-04-08 22:53:00
7:53 PM,71.1,42.1,35,29.96,10.0,SSE,8.1,-,N/A,,Mostly Cloudy,160,2013-04-08 23:53:00
8:53 PM,69.1,45.0,42,29.96,10.0,South,4.6,16.1,N/A,,Scattered Clouds,170,2013-04-09 00:53:00
9:53 PM,68.0,46.9,47,29.96,10.0,South,6.9,-,N/A,,Partly Cloudy,180,2013-04-09 01:53:00
10:53 PM,66.9,48.0,51,29.95,10.0,South,9.2,-,N/A,,Scattered Clouds,190,2013-04-09 02:53:00
11:53 PM,68.0,46.9,47,29.94,10.0,South,6.9,-,N/A,,Mostly Cloudy,190,2013-04-09 03:53:00